Location: Spring Creek
(38.2870°N, 100.2160°W)
Time: 03:58:10
(UTC+00:00)

NOSS 3-4 (A) - Pass Details

Date: 08 May 2021
Orbit: 872 x 1340 km, 63.4° (Epoch: 06 May)

Event Time Altitude Azimuth Distance (km) Brightness Sun altitude
Rises 05:30:26 0° 328° (NNW) 3,864 7.7 -32.4°
Reaches altitude 10° 05:32:59 10° 330° (NNW) 2,970 6.8 -32.5°
Maximum altitude 05:40:09 76° 56° (NE) 1,237 3.9 -33.0°
Enters shadow 05:40:15 75° 63° (ENE) 1,238 3.9 -33.0°
